Location: Robledo de Chavela
(40.5014°N, 4.2377°W)
Time: 13:26:51
(UTC+00:00)

Cosmos 1697 Rocket - Pass Details

Date: 18 April 2024
Orbit: 832 x 843 km, 71.0° (Epoch: 24 May)

Event Time Altitude Azimuth Distance (km) Brightness Sun altitude
Exits shadow 20:18:51 15° 84° (E) 2,119 4.3 -14.7°
Drops below altitude 10° 20:20:58 10° 62° (ENE) 2,465 4.8 -15.1°
Sets 20:24:21 0° 42° (NE) 3,406 5.7 -15.6°
